Weather History for Pineville, WV

Change the Weather History Date:

Friday, January 13, 2012

  Actual Average (KBKW) Record (KBKW)
Temperature  
Mean Temperature 26 °F 31 °F  
Max Temperature 30 °F 39 °F 72 °F (1932)
Min Temperature 23 °F 23 °F -4 °F (1962)
Degree Days  
Heating Degree Days 38 34  
Month to date heating degree days 442  
Since 1 July heating degree days 2535  
Cooling Degree Days 0 0  
Month to date cooling degree days 0  
Year to date cooling degree days 0  
Moisture  
Dew Point 21 °F    
Average Humidity 80    
Maximum Humidity 93    
Minimum Humidity 69    
Precipitation  
Precipitation 0.00 in 0.09 in 1.01 in (1968)
Month to date precipitation 1.19  
Year to date precipitation 1.19  
Snow  
Snow 0.00 in - - ()
Month to date snowfall  
Since 1 September snowfall  
Snow Depth -    
Sea Level Pressure  
Sea Level Pressure 29.88 in    
Wind  
Wind Speed 5 mph (NW)    
Max Wind Speed 9 mph    
Max Gust Speed 18 mph    
Visibility 7 miles    
Events Snow    
T = Trace of Precipitation, MM = Missing Value Source: NWS Daily Summary

Daily Weather History Graph

Daily Weather History Graph

Search for Another Location

Airport:

Trip Planner

Search our weather history database for the weather conditions in past years. The results will help you decide how hot, cold, wet, or windy it might be!

Date:

Astronomy

Jan. 13, 2012 Rise Set
Actual Time 7:40 AM EST 5:29 PM EST
Civil Twilight 7:12 AM EST 5:57 PM EST
Nautical Twilight 6:39 AM EST 6:30 PM EST
Astronomical Twilight 6:08 AM EST 7:01 PM EST
Moon 10:33 PM EST (1/13) 10:00 AM EST (1/13)
Length of Visible Light 10h 45m
Length of Day
9h 48m
Waning Gibbous, 79% of the Moon is Illuminated
Jan 13
Waning Gibbous
Jan 16
Last Quarter
Jan 23
New
Jan 30
First Quarter
Feb 7
Full

Hourly Weather History & Observations

Time (EST) Temp. Windchill Dew Point Humidity Pressure Visibility Wind Dir Wind Speed Gust Speed Precip Events Conditions
12:15 AM 30.2 °F 23.4 °F 23.0 °F 75% 29.67 in 10.0 mi NW 6.9 mph 17.3 mph N/A   Overcast
12:35 AM 30.2 °F 25.4 °F 23.0 °F 75% 29.68 in 4.0 mi NNW 4.6 mph 16.1 mph N/A Snow Light Snow
12:55 AM 30.2 °F 23.4 °F 24.8 °F 80% 29.70 in 7.0 mi NW 6.9 mph - N/A Snow Light Snow
1:15 AM 28.4 °F 23.3 °F 26.6 °F 93% 29.71 in 1.2 mi WNW 4.6 mph 18.4 mph N/A Snow Light Snow
1:35 AM 28.4 °F 22.2 °F 23.0 °F 80% 29.72 in 3.0 mi NW 5.8 mph - N/A Snow Light Snow
1:55 AM 28.4 °F 23.3 °F 21.2 °F 74% 29.72 in 7.0 mi NNW 4.6 mph - N/A Snow Light Snow
2:15 AM 26.6 °F 22.6 °F 23.0 °F 86% 29.73 in 1.8 mi NW 3.5 mph - N/A Snow Light Snow
2:35 AM 26.6 °F 22.6 °F 23.0 °F 86% 29.73 in 7.0 mi West 3.5 mph - N/A Snow Light Snow
2:55 AM 26.6 °F 22.6 °F 21.2 °F 80% 29.72 in 10.0 mi NW 3.5 mph - N/A Snow Light Snow
3:15 AM 26.6 °F - 21.2 °F 80% 29.72 in 10.0 mi Calm Calm - N/A Snow Light Snow
3:35 AM 26.6 °F 21.2 °F 21.2 °F 80% 29.71 in 10.0 mi NW 4.6 mph - N/A   Overcast
3:55 AM 28.4 °F 23.3 °F 21.2 °F 74% 29.72 in 10.0 mi WNW 4.6 mph - N/A Snow Light Snow
4:15 AM 28.4 °F 23.3 °F 21.2 °F 74% 29.71 in 10.0 mi NW 4.6 mph - N/A Snow Light Snow
4:35 AM 28.4 °F 23.3 °F 21.2 °F 74% 29.71 in 10.0 mi West 4.6 mph - N/A   Overcast
4:55 AM 26.6 °F 22.6 °F 23.0 °F 86% 29.72 in 1.0 mi NW 3.5 mph - N/A Snow Light Snow
5:15 AM 26.6 °F 18.2 °F 24.8 °F 93% 29.74 in 0.5 mi WNW 8.1 mph - N/A Snow Snow
5:35 AM 26.6 °F 22.6 °F 23.0 °F 86% 29.75 in 7.0 mi NW 3.5 mph - N/A Snow Light Snow
5:55 AM 26.6 °F - 19.4 °F 74% 29.75 in 10.0 mi Calm Calm - N/A   Overcast
6:15 AM 26.6 °F 20.0 °F 19.4 °F 74% 29.76 in 10.0 mi WNW 5.8 mph - N/A   Overcast
6:35 AM 24.8 °F 17.9 °F 21.2 °F 86% 29.77 in 1.2 mi WNW 5.8 mph - N/A Snow Light Snow
6:55 AM 24.8 °F 19.1 °F 23.0 °F 93% 29.79 in 0.8 mi NW 4.6 mph - N/A Snow Snow
7:15 AM 23.0 °F 13.9 °F 21.2 °F 93% 29.80 in 1.5 mi NW 8.1 mph - N/A Snow Light Snow
7:35 AM 23.0 °F 18.4 °F 19.4 °F 86% 29.82 in 7.0 mi NNE 3.5 mph - N/A   Overcast
7:55 AM 23.0 °F 18.4 °F 19.4 °F 86% 29.82 in 5.0 mi NW 3.5 mph - N/A Snow Light Snow
8:15 AM 23.0 °F 15.8 °F 19.4 °F 86% 29.83 in 10.0 mi NW 5.8 mph - N/A   Overcast
8:35 AM 23.0 °F 15.8 °F 19.4 °F 86% 29.85 in 5.0 mi NW 5.8 mph - N/A Snow Light Snow
9:15 AM 24.8 °F - 19.4 °F 80% 29.87 in 5.0 mi Calm Calm - N/A Snow Light Snow
9:35 AM 24.8 °F 20.5 °F 19.4 °F 80% 29.89 in 4.0 mi WNW 3.5 mph - N/A Snow Light Snow
9:55 AM 24.8 °F 19.1 °F 19.4 °F 80% 29.90 in 3.0 mi NW 4.6 mph - N/A Snow Light Snow
10:15 AM 24.8 °F 19.1 °F 19.4 °F 80% 29.90 in 4.0 mi NNW 4.6 mph - N/A Snow Light Snow
10:35 AM 23.0 °F 17.0 °F 21.2 °F 93% 29.91 in 1.5 mi NW 4.6 mph - N/A Snow Light Snow
10:55 AM 24.8 °F 20.5 °F 19.4 °F 80% 29.92 in 4.0 mi NW 3.5 mph - N/A Snow Light Snow
11:35 AM 24.8 °F 17.9 °F 19.4 °F 80% 29.93 in 3.0 mi NW 5.8 mph - N/A Snow Light Snow
11:55 AM 24.8 °F 16.1 °F 19.4 °F 80% 29.93 in 4.0 mi NW 8.1 mph - N/A Snow Light Snow
12:15 PM 24.8 °F 16.9 °F 19.4 °F 80% 29.93 in 2.5 mi NW 6.9 mph - N/A Snow Light Snow
12:35 PM 23.0 °F 13.9 °F 19.4 °F 86% 29.93 in 2.5 mi NW 8.1 mph - N/A Snow Light Snow
12:55 PM 24.8 °F 16.9 °F 17.6 °F 74% 29.94 in 10.0 mi WNW 6.9 mph 16.1 mph N/A   Overcast
1:15 PM 24.8 °F 16.9 °F 17.6 °F 74% 29.95 in 10.0 mi WNW 6.9 mph - N/A   Overcast
1:35 PM 24.8 °F 19.1 °F 17.6 °F 74% 29.96 in 10.0 mi NW 4.6 mph - N/A   Overcast
1:55 PM 24.8 °F 15.3 °F 17.6 °F 74% 29.96 in 10.0 mi NW 9.2 mph - N/A Snow Light Snow
2:15 PM 24.8 °F 16.1 °F 17.6 °F 74% 29.97 in 10.0 mi WNW 8.1 mph - N/A   Overcast
2:35 PM 24.8 °F 20.5 °F 17.6 °F 74% 29.97 in 10.0 mi WNW 3.5 mph - N/A   Overcast
2:55 PM 26.6 °F 22.6 °F 17.6 °F 69% 29.98 in 10.0 mi NW 3.5 mph - N/A   Overcast
3:15 PM 26.6 °F 21.2 °F 17.6 °F 69% 29.98 in 10.0 mi WNW 4.6 mph - N/A   Overcast
3:35 PM 26.6 °F 22.6 °F 19.4 °F 74% 29.99 in 10.0 mi NW 3.5 mph - N/A   Overcast
3:55 PM 26.6 °F - 19.4 °F 74% 29.99 in 10.0 mi Calm Calm - N/A   Overcast
4:15 PM 26.6 °F 22.6 °F 19.4 °F 74% 30.00 in 10.0 mi NW 3.5 mph - N/A   Overcast
4:35 PM 26.6 °F 19.1 °F 19.4 °F 74% 30.00 in 10.0 mi WNW 6.9 mph - N/A   Overcast
4:55 PM 26.6 °F 22.6 °F 19.4 °F 74% 30.01 in 10.0 mi NW 3.5 mph - N/A Snow Light Snow
5:15 PM 26.6 °F 21.2 °F 19.4 °F 74% 30.02 in 10.0 mi NW 4.6 mph - N/A   Overcast
5:35 PM 26.6 °F - 19.4 °F 74% 30.02 in 10.0 mi Calm Calm - N/A Snow Light Snow
5:55 PM 26.6 °F 22.6 °F 19.4 °F 74% 30.03 in 10.0 mi NW 3.5 mph - N/A Snow Light Snow
6:15 PM 26.6 °F 22.6 °F 21.2 °F 80% 30.03 in 10.0 mi NW 3.5 mph - N/A Snow Light Snow
6:35 PM 26.6 °F 22.6 °F 21.2 °F 80% 30.04 in 10.0 mi NW 3.5 mph - N/A Snow Light Snow
6:55 PM 26.6 °F - 21.2 °F 80% 30.04 in 7.0 mi Calm Calm - N/A Snow Light Snow
7:35 PM 26.6 °F 22.6 °F 21.2 °F 80% 30.05 in 10.0 mi NW 3.5 mph - N/A Snow Light Snow
7:55 PM 26.6 °F - 21.2 °F 80% 30.06 in 10.0 mi Calm Calm - N/A Snow Light Snow
8:15 PM 26.6 °F 22.6 °F 21.2 °F 80% 30.06 in 10.0 mi NW 3.5 mph - N/A Snow Light Snow
8:35 PM 26.6 °F 22.6 °F 21.2 °F 80% 30.06 in 7.0 mi NW 3.5 mph - N/A Snow Light Snow
8:55 PM 26.6 °F 22.6 °F 23.0 °F 86% 30.07 in 4.0 mi NW 3.5 mph - N/A Snow Light Snow
9:15 PM 26.6 °F 22.6 °F 23.0 °F 86% 30.08 in 10.0 mi NW 3.5 mph - N/A   Overcast
9:35 PM 26.6 °F 22.6 °F 23.0 °F 86% 30.08 in 10.0 mi NW 3.5 mph - N/A Snow Light Snow
9:55 PM 26.6 °F 22.6 °F 23.0 °F 86% 30.08 in 10.0 mi NW 3.5 mph - N/A Snow Light Snow
10:15 PM 26.6 °F 22.6 °F 23.0 °F 86% 30.08 in 7.0 mi NNW 3.5 mph - N/A Snow Light Snow
10:55 PM 26.6 °F 21.2 °F 23.0 °F 86% 30.09 in 7.0 mi NW 4.6 mph - N/A Snow Light Snow
11:35 PM 26.6 °F 20.0 °F 23.0 °F 86% 30.09 in 7.0 mi WNW 5.8 mph - N/A Snow Light Snow
11:55 PM 26.6 °F - 23.0 °F 86% 30.09 in 5.0 mi Calm Calm - N/A Snow Light Snow